sat.trackr.live / text

‹ back to catalog

XINZHENGCHENG-01

NORAD 68412 · 2026-066A

PAYLOAD ACTIVE UNKNOWN

§ Identity

Operator
Country
PRC
Launch date
2026-03-30
Launch site
JSC
Launch vehicle
Mass (kg)
RCS (m²)

External: N2YO · Heavens-Above · Gunter

§ Orbital elements

Epoch: 2026-05-25T05:40:40.386720Z

Period
96.75 min
Inclination
84.9671°
Eccentricity
0.0024504
Mean motion
14.88384918 rev/d
Perigee alt
585.9 km
Apogee alt
620.1 km
Semi-major
6,981.1 km
B*
4.3372e-5
RAAN
242.3412°
Arg perigee
337.9229°
Mean anomaly
22.0936°
Rev number
831

§ Raw data

XINZHENGCHENG-011 68412U 26066A   26145.23657855  .00000433  00000+0  43372-4 0  99922 68412  84.9671 242.3412 0024504 337.9229  22.0936 14.88384918  8314

JSON: /api/v1/satellites/68412 · /tle

For live sub-satellite position, see the globe view (requires WebGL).

§ Visibility from observer

Set your observer location to see the next 7 days of passes ≥ 10°. The values pass through the URL so the page stays shareable.

No JS? Fill the form by hand. The geolocation button needs JavaScript.